Flag for India

Past Weather in Chennai, Tamil Nadu, India — Yesterday and Last 2 Weeks

Now
86 °F

Broken clouds.


Feels Like: 95 °F
Forecast: 86 / 80 °F
Wind: 8 mph from West

Location: Madras / Minambakkam
Current Time: Sep 19, 2020 at 4:10:37 pm
Latest Report: Sep 19, 2020 at 3:30 pm
Visibility: 4 mi
Pressure29.56 "Hg
Humidity: 70%
Dew Point: 75 °F
Location of ChennaiLocation

Past Weather in Chennai — Graph

°F

Chennai Temperature Yesterday

Maximum temperature yesterday: 91 °F (at 2:30 pm)
Minimum temperature yesterday: 79 °F (at 4:30 pm)
Average temperature yesterday: 84 °F

High & Low Weather Summary for the Past Weeks

 TemperatureHumidityPressure
High93 °F (Sep 7, 11:00 am)100% (Sep 16, 3:00 am)29.80 "Hg (Sep 16, 3:00 am)
Low75 °F (Sep 13, 5:30 pm)52% (Sep 8, 11:00 am)29.56 "Hg (Sep 18, 3:30 pm)
Average83 °F77%29.70 "Hg
* Reported Sep 4 2:30 pm — Sep 19 3:00 pm, Chennai. Weather by CustomWeather, © 2020

Note: Actual official high and low records may vary slightly from our data, if they occured in-between our weather recording intervals... More about our weather records

Chennai Weather History for the Previous 24 Hours

Scroll right to see more
 ConditionsComfort  
Time TempWeatherWind HumidityBarometerVisibility
3:00 pm
Sat, Sep 19
88 °FBroken clouds.8 mph66%29.56 "Hg4 mi
2:30 pm88 °FBroken clouds.9 mph66%29.56 "Hg4 mi
2:00 pm86 °FBroken clouds.7 mph70%29.56 "Hg4 mi
1:30 pm86 °FBroken clouds.7 mph70%29.59 "Hg4 mi
1:00 pm84 °FBroken clouds.7 mph74%29.59 "Hg4 mi
12:30 pm84 °FBroken clouds.7 mph74%29.62 "Hg4 mi
12:00 pm84 °FBroken clouds.8 mph70%29.62 "Hg4 mi
11:30 am84 °FBroken clouds.9 mph74%29.62 "Hg4 mi
11:00 am82 °FBroken clouds.7 mph79%29.62 "Hg4 mi
10:30 am82 °FBroken clouds.7 mph79%29.65 "Hg4 mi
10:00 am81 °FBroken clouds.7 mph84%29.65 "Hg4 mi
9:30 am81 °FBroken clouds.5 mph84%29.65 "Hg4 mi
9:00 am79 °FDrizzle. Broken clouds.5 mph89%29.65 "Hg3 mi
8:30 am79 °FDrizzle. More clouds than sun.5 mph89%29.65 "Hg3 mi
8:00 am77 °FDrizzle. More clouds than sun.5 mph94%29.65 "Hg3 mi
7:30 am77 °FDrizzle. More clouds than sun.5 mph94%29.65 "Hg3 mi
7:00 am77 °FDrizzle. More clouds than sun.5 mph89%29.62 "Hg2 mi
6:30 am75 °FDrizzle. More clouds than sun.5 mph94%29.62 "Hg2 mi
6:00 am75 °FThunderstorms. Overcast.No wind94%29.62 "Hg2 mi
5:30 am75 °FThunderstorms. Partly cloudy.No wind94%29.62 "Hg2 mi
5:00 am75 °FThunderstorms. Mostly cloudy.No wind94%29.62 "Hg2 mi
4:30 am75 °FThunderstorms. Mostly cloudy.No wind94%29.62 "Hg2 mi
4:00 am75 °FThunderstorms. Mostly cloudy.No wind94%29.62 "Hg2 mi
3:30 am75 °FThunderstorms. Mostly cloudy.7 mph94%29.62 "Hg1 mi
3:00 am75 °FStrong thunderstorms. Mostly cloudy.5 mph94%29.65 "Hg1 mi
2:30 am75 °FStrong thunderstorms. Mostly cloudy.7 mph100%29.65 "Hg1 mi
2:00 am75 °FPartly cloudy.6 mph100%29.62 "Hg2 mi
1:30 am75 °FThunderstorms. Mostly cloudy.3 mph100%29.62 "Hg2 mi
1:00 am75 °FThunderstorms. Mostly cloudy.No wind100%29.62 "Hg2 mi
12:30 am75 °FStrong thunderstorms. Partly cloudy.12 mph100%29.65 "Hg1 mi
12:00 am77 °FStrong thunderstorms. Partly cloudy.5 mph94%29.65 "Hg1 mi
11:30 pm
Fri, Sep 18
81 °FFog.13 mph84%29.65 "Hg3 mi
11:00 pm82 °FFog.5 mph74%29.65 "Hg3 mi
10:30 pm82 °FFog.2 mph79%29.65 "Hg3 mi
10:00 pm82 °FFog.2 mph84%29.65 "Hg3 mi
9:00 pm84 °FFog.No wind79%29.65 "Hg3 mi
8:30 pm82 °FFog.No wind84%29.65 "Hg3 mi
8:00 pm82 °FFog.No wind84%29.62 "Hg3 mi
7:30 pm82 °FFog.No wind84%29.62 "Hg3 mi
7:00 pm82 °FFog.No wind89%29.59 "Hg2 mi
6:30 pm81 °FFog.No wind94%29.59 "Hg2 mi
6:00 pm81 °FFog.No wind94%29.59 "Hg3 mi
5:30 pm81 °FFog.No wind94%29.59 "Hg3 mi
5:00 pm81 °FFog.No wind89%29.56 "Hg3 mi
4:30 pm79 °FThunderstorms. Broken clouds.5 mph84%29.59 "Hg1 mi
4:00 pm88 °FFog.No wind75%29.56 "Hg3 mi
Weather by CustomWeather, © 2020

See weather overview